Location: Oberkirch
(48.5323°N, 8.0787°E)
Time: 05:26:46
(UTC+00:00)

Okean 1-7 - Pass Details

Date: 08 November 2025
Orbit: 566 x 589 km, 82.5° (Epoch: 10 December)

Event Time Altitude Azimuth Distance (km) Brightness Sun altitude
Exits shadow 04:12:30 40° 344° (NNW) 868 3.6 -22.1°
Drops below altitude 10° 04:15:25 10° 3° (N) 1,925 5.6 -21.6°
Sets 04:17:40 0° 7° (N) 2,834 6.5 -21.2°
